Regional Weather Roundup
Issued by NWS

Home | Current Version | Previous Version | Graphics & Text | Print | Product List | Glossary On
Versions: 1 2 3 4 5 6 7 8 9 10 11 12 13 14 15 16 17 18 19 20 21 22 23 24 25 26 27
000
ASUS45 KBOU 210807
RWRCO

WEATHER ROUNDUP FOR COLORADO
NATIONAL WEATHER SERVICE DENVER/BOULDER CO
200 AM MDT FRI JUL 21 2017

NOTE: "FAIR" INDICATES FEW OR NO CLOUDS BELOW 12000 FEET WITH NO
SIGNIFICANT WEATHER AND/OR OBSTRUCTIONS TO VISIBILITY.

COZ001>005-013-030-031-210900-
...NORTHWEST COLORADO...

CITY           SKY/WX    TMP DP  RH WIND       PRES   REMARKS
CRAIG          CLOUDY    64  52  64 SE6       30.25R
HAYDEN         FAIR      64  45  48 NE5       30.26R
MEEKER         FAIR      59  55  87 NE6       30.25S
RABBIT EARS PA PTSUNNY   54  41  62 S6        30.55S
STEAMBOAT SPGS FAIR      59  47  64 NW3       30.28S
WALDEN         MOCLDY    57  45  62 CALM      30.39S
$$

COZ006>008-011-210900-
...WEST CENTRAL VALLEYS...

CITY           SKY/WX    TMP DP  RH WIND       PRES   REMARKS
GRAND JUNCTION FAIR      73  53  49 CALM      30.11F
MONTROSE       FAIR      66  52  60 SE10      30.22F
EAGLE          FAIR      60  52  74 CALM      30.31R
RIFLE          FAIR      66  55  67 CALM      30.19S
DELTA          FAIR      71  53  51 NE3       30.16F
NUCLA          FAIR      66  52  59 CALM      30.27S
$$

COZ017>023-064>068-210900-
...SOUTHWEST COLORADO...

CITY           SKY/WX    TMP DP  RH WIND       PRES   REMARKS
DURANGO        FAIR      61  50  67 CALM      30.28F
CORTEZ         FAIR      61  59  93 E6        30.24F
PAGOSA SPRINGS MOCLDY    57  51  79 CALM      30.37F
TELLURIDE      FAIR      53  48  85 CALM      30.48F
WOLF CREEK PAS NOT AVBL
$$

COZ009-010-012-014-032>034-037-058>063-210900-
...CENTRAL COLORADO...

CITY           SKY/WX    TMP DP  RH WIND       PRES   REMARKS
ASPEN          FAIR      55  50  83 S7        30.35F
BUENA VISTA    FAIR      57  49  73 NW12      30.36F
COPPER MTN     FAIR      54  36  50 W3        30.67F
BERTHOUD PASS  FAIR      46  32  57 NW18      30.69F
COTTONWOOD PAS FAIR      59  41  51 W7        30.49F
GUNNISON       FAIR      56  49  77 CALM      30.37R
KREMMLING      FAIR      59  54  82 CALM      30.35F
LEADVILLE      FAIR      45  41  86 NE5       30.50F
MONARCH PASS   FAIR      48  41  76 W15       30.76F
SALIDA         FAIR      61  53  74 W6        30.40F
SUNLIGHT       FAIR      50  41  71 SW7       30.60S
WILKERSON PASS FAIR      54  37  54 W8        30.61F
$$

COZ069>075-210900-
...SAN LUIS VALLEY/SANGRE DE CRISTO MOUNTAINS...

CITY           SKY/WX    TMP DP  RH WIND       PRES   REMARKS
ALAMOSA        CLOUDY    60  53  77 N3        30.33F
DEL NORTE      MOCLDY    58  48  68 W12       30.38S
LA VETA PASS   NOT AVBL
SAGUACHE         N/A    N/A N/A N/A MISG        N/A
$$

COZ035-036-038>040-210900-
...NORTHERN COLORADO FRONT RANGE...

CITY           SKY/WX    TMP DP  RH WIND       PRES   REMARKS
DENVER INTL AP MOCLDY    71  52  50 SW12      30.10F
DMNS CITY PARK   N/A     69  53  55 E9        30.08S
AURORA         MOCLDY    71  53  52 SW7       30.11F
FRONT RANGE AP FAIR      73  52  46 SW12      30.12S
ERIE MUNI ARPT FAIR      68  49  50 W5        30.07F
BOULDER MUN AP FAIR      73  45  35 N3        30.08F
CENTENNIAL     FAIR      72  50  45 VRB5      30.13F
BROOMFIELD     FAIR      70  46  43 NW9       30.11F
FORT COLLINS   FAIR      72  54  53 VRB6      30.09S
LONGMONT       FAIR      71  54  55 NW5       30.09F
$$

COZ041-046-047-076>085-087-088-210900-
...PIKES PEAK/PALMER DIVIDE AND SOUTHERN FOOTHILLS...

CITY           SKY/WX    TMP DP  RH WIND       PRES   REMARKS
COLO. SPRINGS  FAIR      71  51  49 N10       30.17F
A. F. ACADEMY  FAIR      67  50  53 NE8       30.18F
SCHRIEVER AFB  FAIR      71  46  40 N13       30.17F
CHEYENNE MTN   FAIR      73  46  38 W5        30.18F
ELLICOTT       FAIR     N/A N/A N/A NE5       30.15F
FALCON           N/A     68  45  42 NW8       30.23F
FORT CARSON    FAIR      69  52  53 NW9       30.13F
LIMON          FAIR      62  58  86 NW6       30.11F
MONUMENT HILL  FAIR      63  46  55 SW7       30.25F
CANON CITY     CLEAR     70  55  60 W12       30.12F
WALSENBURG     FAIR      70  48  46 W6        30.18S
TRINIDAD       FAIR      73  47  39 NW10      30.16S
$$

COZ042>045-048>051-090-091-210900-
...NORTHEAST COLORADO...

CITY           SKY/WX    TMP DP  RH WIND       PRES   REMARKS
GREELEY ARPT   FAIR      71  59  65 NW10      30.09R
AKRON          FAIR      74  52  46 W9        30.03F
BURLINGTON     FAIR      69  60  73 SW8       30.00F
WRAY           NOT AVBL
YUMA           FAIR      72  52  49 W6        29.99F
STERLING       FAIR      70  64  83 W6        29.98R
HOLYOKE        FAIR      73  64  73 NW3       29.96S
FORT MORGAN    FAIR      71  53  52 W9        30.04S
$$

COZ086-089-092>099-210900-
...SOUTHEAST COLORADO...

CITY           SKY/WX    TMP DP  RH WIND       PRES   REMARKS
PUEBLO         FAIR      73  52  47 W9        30.05F
LA JUNTA       FAIR      74  53  48 SW16      30.00S
LAMAR          FAIR      72  53  51 S10       29.96S
SPRINGFIELD      N/A     70  52  52 S13       30.05F
$$




USA.gov is the U.S. government's official web portal to all federal, state and local government web resources and services.